Location: B??jhokhet
(27.7629°N, 85.7172°E)
Time: 06:19:37
(UTC+00:00)

Daily predictions for brighter satellites

Satellite Brightness Start Highest point End
(mag) Time Altitude Azimuth Time Altitude Azimuth Time Altitude Azimuth
CORIOLIS 4.3 12:04:42 10° SSE 12:10:07 87° WSW 12:15:32 10° NNW
Cosmos 1606 Rocket 3.6 12:06:23 10° N 12:10:43 57° E 12:15:04 10° SSE
H-2A R/B 3.9 12:07:56 10° N 12:11:53 33° WNW 12:15:43 10° SW
NOAA 11 4.3 12:09:15 10° SSE 12:14:45 87° WSW 12:20:16 10° NNW
MOS 1 Rocket 3.2 12:10:45 10° NNE 12:14:55 52° E 12:19:08 10° S
Cosmos 1689 Rocket 3.2 12:14:23 10° NE 12:16:45 23° E 12:19:06 10° SSE
SAR-Lupe-4 4.2 12:17:15 10° NNE 12:20:34 36° E 12:23:52 10° SSE
SJ 16-02 1.4 12:16:24 10° S 12:20:42 56° ESE 12:25:01 10° NNE
Cosmos 2228 3.1 12:19:16 10° N 12:23:32 84° W 12:27:49 10° S
Cosmos 783 Rocket 4.5 12:21:09 10° NNW 12:26:23 86° ENE 12:31:39 10° SSE
SKYMED 2 3.9 12:22:42 10° N 12:27:01 72° WNW 12:31:19 10° SSW
SAR-Lupe-1 4.2 12:28:01 10° NNE 12:31:31 52° E 12:34:58 10° S
COSMOS 2455 4.1 12:29:07 10° SW 12:34:43 40° WNW 12:40:20 10° N
NOSS 2-1 (C) 3.3 12:32:00 10° SSW 12:35:43 48° ESE 12:38:23 14° NE
Abrixas rocket 1.6 12:35:11 10° NW 12:37:49 81° SW 12:40:25 10° SE
Cosmos 44 3.3 12:35:57 10° S 12:40:22 55° ESE 12:44:50 11° NE
Cosmos 1703 3.8 12:37:57 10° SSE 12:41:31 35° E 12:45:04 10° NNE
NOSS 2-1 (D) 3.0 12:37:48 10° SSW 12:41:35 61° ESE 12:44:07 16° NE
Cosmos 2058 Rocket 3.1 12:37:17 10° N 12:41:44 60° E 12:46:10 10° SSE
Cosmos 1943 3.6 12:37:33 10° NNW 12:43:09 67° WSW 12:48:43 10° S
Cosmos 1844 3.7 12:37:41 10° SSW 12:43:16 85° WNW 12:48:58 10° NNE
Okean 1-7 Rocket 4.0 12:38:54 10° SSW 12:43:22 70° W 12:47:55 10° N
Feng Yun 1-1 Rocket 4.1 12:39:35 10° SSE 12:44:57 86° E 12:50:26 10° NNW
Cosmos 1340 3.6 12:41:51 10° SSE 12:45:01 26° E 12:46:33 20° NE
Cosmos 1455 2.8 12:43:23 10° NNE 12:46:50 32° E 12:50:17 10° SE
CZ-2C R/B 3.5 12:42:12 10° NE 12:47:07 31° E 12:52:02 10° SSE
GPS 2-14 Rocket1 4.3 12:43:34 10° WSW 12:47:10 30° S 12:50:30 12° ESE
IRS-1C Rocket 4.0 12:42:02 10° SSE 12:47:12 64° ENE 12:52:24 10° N
Lacrosse 5 3.9 12:46:54 10° NNE 12:47:14 10° NNE 12:47:14 10° NNE
Centaur D-1AR AC-48 3.8 12:29:06 10° WSW 12:47:49 51° S 12:51:45 15° ESE
USA 267 3.2 12:42:08 10° NE 12:48:38 76° SE 12:55:09 10° SW
Cosmos 990 Rocket 4.1 12:45:32 10° S 12:50:37 56° ESE 12:55:43 10° NNE
Cosmos 1939 Rocket 4.0 12:47:46 10° S 12:51:46 48° W 12:55:45 10° NNW
SWIFT 3.8 12:48:42 10° WSW 12:52:28 30° S 12:55:33 14° SE
BREEZE-M DEB (TANK) 2.5 12:50:37 10° NW 12:53:38 69° NE 13:00:00 10° SE
Cosmos 1626 Rocket 3.4 12:51:18 10° S 12:55:37 77° E 12:59:59 10° N
Cosmos 2195 Rocket 4.5 12:55:08 10° S 13:01:19 62° E 13:07:33 10° NNE
CZ-4 R/B 1.3 12:59:31 10° SSE 13:03:39 75° ENE 13:07:44 10° N
ERS-2 4.0 13:02:03 10° NNW 13:05:15 30° WNW 13:08:26 10° SW
Meteor 1-21 Rocket 4.4 13:00:27 10° SSW 13:05:57 74° W 13:11:29 10° N
CZ-2C R/B 3.3 13:01:01 10° S 13:06:04 73° WSW 13:11:28 10° NNW
Cosmos 1844 Rocket 4.0 13:00:49 10° SW 13:06:04 40° WNW 13:11:22 10° N
Cosmos 1328 3.8 13:02:44 10° S 13:06:40 56° E 13:08:50 24° NNE
H-2A R/B 1.8 13:05:06 10° SSE 13:09:57 65° ENE 13:14:54 10° N
Mugunghwa Rocket 4.3 13:02:51 10° W 13:10:42 83° S 13:14:47 28° E
Cosmos 1627 Rocket 4.4 13:04:46 10° S 13:10:49 66° E 13:16:57 10° NNE
Cosmos 2278 Rocket 2.8 13:09:25 10° SSE 13:14:22 32° ESE 13:14:39 32° E
Okean-O 2.5 13:10:41 10° SSE 13:15:06 88° ENE 13:19:33 10° NNW
Cosmos 1428 Rocket 4.4 13:10:12 10° S 13:16:22 68° E 13:22:37 10° NNE
Cosmos 1758 Rocket 3.7 13:13:09 10° SSE 13:17:21 47° E 13:17:34 47° E
Cosmos 1898 Rocket 3.5 13:13:08 10° SSW 13:18:26 88° WNW 13:22:38 17° NNE
BREEZE-M DEB (TANK) 4.2 13:16:56 10° S 13:18:04 14° SSE 13:18:04 14° SSE
Cosmos 923 Rocket 4.3 13:16:16 10° N 13:21:17 42° ENE 13:21:17 42° ENE
Hubble Space Telescope 0.6 13:18:08 10° W 13:22:16 82° N 13:22:47 67° ENE
Cosmos 2098 Rocket 4.2 13:18:16 10° S 13:24:42 66° E 13:31:59 10° NNE
Cosmos 1092 Rocket 4.2 13:19:54 10° SSW 13:26:06 71° W 13:32:16 10° N
GOES 2 Rocket 4.3 13:19:53 10° W 13:26:35 86° N 13:30:21 37° E
Cosmos 489 Rocket 4.4 13:21:38 10° N 13:27:58 69° ENE 13:34:13 10° SSE
Cosmos 158 Rocket 4.0 13:23:07 10° N 13:28:25 57° ENE 13:31:25 25° SE
CSL-04 Rocket 3.5 13:23:26 10° SSE 13:28:42 63° ENE 13:34:03 10° N
Milstar 3 3.8 13:28:58 10° SW 13:36:28 31° SSE 13:38:18 27° SE
YAOGAN 1 3.6 13:34:12 10° S 13:38:20 46° W 13:42:30 10° NNW
GPS 2-12 Rocket1 4.2 13:35:34 10° WSW 13:39:26 29° S 13:39:37 29° S
DELTA 2 R/B (1) 4.1 13:39:17 10° WNW 13:44:41 56° SW 13:46:34 37° SSE
Helios 1A Rocket 3.9 13:42:06 10° S 13:46:03 47° W 13:50:03 10° NNW
Iridium 4 Rocket 3.9 13:47:20 10° N 13:52:46 64° W 13:57:42 10° SSW
Cosmos 1937 Rocket 4.1 13:48:53 10° SSW 13:54:01 54° WNW 13:56:00 35° NNW
Centaur AC-146 3.7 13:58:18 10° SW 14:00:17 29° SSW 14:00:17 29° SSW
DMSP B5D2-2 4.4 14:03:32 59° NW 14:04:04 63° WNW 14:09:14 10° SSW
ARGOS 4.1 14:02:42 10° S 14:07:48 46° W 14:12:56 10° NNW
ATLAS 2A CENTAUR R/B 4.2 14:22:24 10° WSW 14:50:03 52° S 14:50:03 52° S
Cosmos 2278 Rocket 4.4 14:53:47 10° WSW 14:56:34 21° W 14:56:34 21° W
Atlas Centaur 2 3.8 21:58:14 42° ESE 21:58:14 42° ESE 22:03:59 10° E
FALCON 9 R/B 3.5 22:09:17 35° E 22:09:17 35° E 22:11:16 10° E
CZ-3A R/B 4.0 22:07:29 73° SSW 22:08:09 74° S 22:18:21 10° ESE
CZ-2C R/B 4.4 22:25:14 12° ENE 22:25:14 12° ENE 22:25:33 10° ENE
SJ 16-02 3.7 22:34:38 20° ENE 22:34:44 20° ENE 22:37:58 10° ESE
COSMOS 2428 4.4 22:43:40 22° NNE 22:43:40 22° NNE 22:45:32 10° NNE
Tsikada Rocket 4.5 22:49:29 47° S 22:49:29 47° S 22:53:45 10° S
Meteor 2-5 Rocket 3.8 22:50:10 71° ENE 22:50:21 72° E 22:56:05 10° SSE
OAO 3 Rocket 4.0 22:55:23 47° ESE 22:55:23 47° ESE 22:58:44 10° ESE
USA 267 3.4 22:50:46 10° SSE 22:56:39 54° SW 22:56:39 54° SW
H-2A R/B 3.7 22:53:58 10° SSE 22:56:04 28° SSE 22:56:04 28° SSE
Cosmos 44 3.5 23:04:37 74° S 23:04:37 74° S 23:09:30 10° SSE
ATLAS 2A CENTAUR R/B 4.4 23:05:10 12° SSW 23:06:35 13° S 23:09:57 10° SSE
SL-4 R/B 3.4 23:07:26 31° SE 23:07:33 31° SE 23:10:56 10° ENE
IRIDIUM 103 4.3 23:03:56 10° S 23:09:08 79° E 23:14:21 10° N
Cosmos 1455 Rocket 3.6 23:05:50 10° S 23:10:07 57° E 23:14:23 10° NNE
GPS 2-04 Rocket1 4.1 23:12:25 33° NE 23:12:25 33° NE 23:15:37 10° E
Cosmos 540 Rocket 4.1 23:07:37 10° S 23:12:33 53° ESE 23:17:31 10° NNE
ATLAS 3B CENTAUR R/B 4.0 23:09:49 35° WSW 23:13:31 48° SSW 23:29:59 10° SE
IUS R/B (1) 3.6 23:14:55 28° ESE 23:14:55 28° ESE 23:16:12 10° E
Meteor 2-10 4.1 23:08:40 10° S 23:14:23 89° WNW 23:19:59 10° N
Delta 2 Rocket 4.2 23:19:32 54° WSW 23:20:15 59° SSW 23:25:49 10° SE
Meteor 1-24 Rocket 3.6 23:20:51 34° NNW 23:23:20 72° W 23:29:03 10° S
ATLAS CENTAUR R/B 3.9 23:21:35 10° SSE 23:24:23 20° ESE 23:27:07 10° ENE
IRIDIUM 106 4.2 23:22:16 10° S 23:27:25 66° W 23:32:37 10° N
Cosmos 1844 3.7 23:27:16 41° NW 23:29:06 62° WSW 23:34:46 10° S
Cosmos 1953 3.0 23:26:41 10° S 23:30:34 54° E 23:34:27 10° NNE
OAO 2 Rocket 4.0 23:31:40 34° NNW 23:32:17 36° N 23:36:48 10° ENE
SL-24 R/B 3.6 23:28:44 10° S 23:32:27 85° WSW 23:33:40 43° NNW
Gbstr 26 Del rocket 4.3 23:28:19 22° SW 23:33:15 75° NW 23:41:18 10° NE
deb Chang Zheng 4 3.3 23:31:12 10° N 23:35:25 68° WNW 23:39:36 10° SSW
ERS-2 3.5 23:32:07 10° SE 23:35:30 38° ENE 23:38:54 10° N
NOSS 0 Rocket 3.9 23:31:41 10° SSW 23:37:46 60° WNW 23:43:52 10° NNE
Aurora 2 Rocket 3.7 23:36:05 26° SW 23:38:44 51° SSE 23:45:24 10° E
Cosmos 1763 Rocket 4.2 23:40:10 31° NW 23:40:10 31° NW 23:43:44 10° N
Cosmos 1513 Rocket 4.4 23:33:05 10° SSW 23:39:24 67° W 23:45:39 10° N
USA 307 3.8 23:36:30 10° SSW 23:40:34 48° SE 23:44:38 10° NE
Meteor PRIRODA 3.4 23:40:47 10° N 23:44:22 68° WNW 23:47:57 10° SSW
Cosmos 841 Rocket 3.3 23:39:37 10° SSW 23:44:44 74° WNW 23:49:52 10° N
OAO 3 Copernicus 4.2 23:43:00 34° WSW 23:45:11 78° NNW 23:50:15 10° ENE
Atlas Centaur 2 3.0 23:40:51 27° W 23:45:42 83° N 23:54:19 10° ENE
SL-16 R/B 3.8 23:43:17 10° SSE 23:48:22 36° ESE 23:53:29 10° NE
USA 308 3.4 23:45:05 10° SSW 23:49:15 60° SE 23:53:25 10° NE
USA 305 3.2 23:45:46 10° SSW 23:49:58 67° SE 23:54:10 10° NE
Cosmos 1844 Rocket 3.5 23:49:28 28° W 23:50:04 28° WSW 23:54:45 10° SSW
Cosmos 1464 Rocket 4.0 23:45:29 10° SSW 23:51:27 55° W 23:57:26 10° N
USA 276 3.0 23:51:23 28° N 23:52:36 43° NE 23:55:35 10° ESE
Cosmos 1898 Rocket 3.7 23:48:35 10° N 23:53:44 71° ENE 23:58:52 10° SSE
